Regional Weather Roundup
Issued by NWS

Home | Current Version | Previous Version | Text Only | Print | Product List | Glossary Off
Versions: 1 2 3 4 5 6 7 8 9 10 11 12 13 14 15 16 17 18 19 20 21 22 23 24 25 26 27

000
ASUS45 KCYS 292310
RWRWY

WYOMING REGIONAL WEATHER ROUNDUP
NATIONAL WEATHER SERVICE CHEYENNE WY
500 PM MDT SUN MAY 29 2016

NOTE:  "FAIR" INDICATES FEW OR NO CLOUDS BELOW 12,000 FEET
WITH NO SIGNIFICANT WEATHER AND/OR OBSTRUCTIONS TO VISIBILITY.

WYZ001-300000-
YELLOWSTONE NATIONAL PARK

CITY           SKY/WX    TMP DP  RH WIND       PRES   REMARKS
LK YELLOWSTONE   N/A     59  21  23 W12G20    30.17F
W YELLOWSTONE  NOT AVBL

$$
WYZ002>013-054>058-071-098>099-300000-
NORTHERN WYOMING

CITY           SKY/WX    TMP DP  RH WIND       PRES   REMARKS
JACKSON        PTSUNNY   63  34  34 SW10      30.10F
CODY           PTSUNNY   72  32  23 SW22G30   29.99S
GREYBULL       FAIR      78  28  16 VRB7      29.93F
WORLAND        FAIR      78  28  16 SE3       29.95F
SHERIDAN       FAIR      76  44  32 SE8G16    29.97F
BUFFALO        FAIR      73  41  31 E6        30.01F
GILLETTE       FAIR      74  38  27 VRB5      30.00F
HULETT         FAIR      73  41  31 S3        30.02F
NEWCASTLE      FAIR      77  28  16 NW3       30.00F

$$
WYZ014>020-022>026-101>103-300000-
CENTRAL WYOMING

CITY           SKY/WX    TMP DP  RH WIND       PRES   REMARKS
BIG PINEY      PTSUNNY   64  33  31 VRB3      30.13F
PINEDALE       FAIR      61  34  36 CALM      30.15F
DUBOIS         MOCLDY    59  32  36 N14G23    30.13S
LANDER         FAIR      68  42  38 S5        30.01F
RIVERTON       CLOUDY    75  31  19 VRB5      30.03F
CASPER         FAIR      74  29  19 VRB6      30.03F
DOUGLAS          N/A    N/A N/A N/A MISG      30.04F

$$
WYZ021-027>030-104>119-300000-
SOUTHERN WYOMING

CITY           SKY/WX    TMP DP  RH WIND       PRES   REMARKS
EVANSTON       FAIR      65  32  29 W14       30.15F
KEMMERER         N/A     59  36  41 SE13G22   30.18S
FORT BRIDGER   LGT RAIN  59  45  58 SE14      30.19F
ROCK SPRINGS   FAIR      64  34  32 SW28      30.15S
DIXON          CLOUDY    63  37  37 SW3       30.19R
RAWLINS        FAIR      68  32  26 SW9       30.14F
SARATOGA       MOCLDY    63  34  34 W17G32    30.17S
LARAMIE        CLOUDY    60  34  37 S14G23    30.18R THUNDER
CHEYENNE       FAIR      68  36  30 N9        30.13S
TORRINGTON     FAIR      71  38  29 S18G28    30.02F
PINE BLUFFS    CLOUDY    70  41  35 NE6       30.08S

$$




USA.gov is the U.S. government's official web portal to all federal, state and local government web resources and services.